Location: Haliburton Scout Reserve
(45.0900°N, 78.3200°W)
Time: 17:34:49
(UTC-04:00)

JY1SAT - Pass Details

Date: 23 June 2024
Orbit: 536 x 549 km, 97.5° (Epoch: 11 July)

Event Time Altitude Azimuth Distance (km) Brightness Sun altitude
Exits shadow 23:24:29 - 223° (SW) 2,325 ? -17.0°
Reaches altitude 10° 23:26:36 10° 245° (WSW) 1,820 ? -17.1°
Maximum altitude 23:28:16 12° 271° (W) 1,679 ? -17.3°
Drops below altitude 10° 23:29:56 10° 296° (WNW) 1,830 ? -17.4°
Sets 23:33:17 0° 327° (NNW) 2,734 ? -17.6°
